#timestamp,LO_Frequency,Hit,StdDev 
1516802415.5,286046998.3,P
1516802435.3,286046999.4,N
1516802455.1,286046998.4,Y
1516802475.9,286047000.8,P
1516802495.7,286046999.7,N
1516802515.6,286047000.5,N
1516802535.4,286047000.2,N
1516802555.2,286047002.4,Y
1516802575.1,286047000.5,P
1516802576.0,286047000.5,N
1516802595.8,286047001.4,P
1516802615.7,286047001.4,N
1516802635.5,286047001.8,Y
1516802655.3,286047002.8,P
1516802675.2,286047000.5,N
1516802695.0,286046999.8,N
1516802695.9,286046999.8,N
1516802715.7,286047000.4,N
1516802735.6,286047000.9,N
1516802755.4,286047000.9,N
1516802775.3,286046998.3,N
1516802795.1,286046998.4,N
1516802796.0,286046998.4,N
1516802815.8,286046998.3,N
1516802835.7,286046998.4,N
1516802855.5,286046998.6,N
1516802875.3,286047000.7,N
1516802895.2,286047001.0,N
1516802915.0,286046999.9,N
1516802915.9,286046999.9,N
1516802935.8,286047002.1,N
1516802955.6,286047001.6,N
1516802975.4,286047001.8,N
1516802995.3,286047001.9,N
1516803015.1,286046999.9,N
1516803035.9,286047001.2,N
1516803055.7,286047001.0,N
1516803075.5,286046998.3,N
1516803095.4,286047001.0,N
1516803115.2,286047002.7,N
1516803135.0,286047000.0,N
1516803135.9,286047000.0,N
1516803155.8,286047002.4,N
1516803175.6,286047000.8,N
1516803195.5,286047000.0,N
1516803215.3,286047000.3,N
1516803235.1,286047000.8,N
1516803255.9,286047000.4,N
1516803275.7,286046998.6,N
1516803295.5,286046999.3,N
1516803315.4,286046998.1,N
1516803335.2,286046999.6,N
1516803355.1,286046998.9,N
1516803356.0,286046998.9,N
1516803375.8,286046998.8,N
1516803395.6,286046998.3,N
1516803415.5,286046999.0,N
1516803435.3,286046998.9,N
1516803455.1,286046997.4,N
1516803475.9,286046997.0,N
1516803495.7,286046997.3,N
1516803515.6,286046997.0,N
1516803535.4,286046995.4,Y
1516803555.2,286046996.1,P
1516803575.1,286046995.5,N
1516803576.0,286046995.5,N
1516803595.8,286046994.9,N
1516803615.7,286046993.4,Y
1516803635.5,286046996.9,P
1516803655.3,286047000.8,N
1516803675.2,286046998.3,N
1516803695.0,286046998.8,N
1516803695.9,286046998.8,N
1516803715.8,286046998.7,N
1516803735.6,286046999.3,N
1516803755.4,286047000.7,N
1516803775.3,286046998.4,N
1516803795.1,286046996.9,N
1516803815.8,286046997.9,N
1516803835.7,286046995.5,Y
1516803855.5,286046997.3,P
1516803875.4,286046999.6,N
1516803895.2,286046998.7,N
1516803915.0,286046999.0,N
1516803915.9,286046999.0,N
1516803935.8,286046999.2,N
1516803955.6,286046997.7,Y
1516803975.5,286046998.5,P
1516803995.3,286046996.5,P
1516804015.1,286046998.8,N
1516804035.9,286046998.4,N
1516804055.7,286046997.4,Y
1516804075.6,286046999.6,P
1516804095.4,286046998.6,N
1516804115.2,286047001.0,N
1516804135.1,286046998.8,N
1516804136.0,286046998.8,N
1516804155.8,286046998.6,N
1516804175.6,286047000.7,N
1516804195.5,286047001.2,N
1516804215.3,286047000.4,N
1516804235.2,286046998.3,N
1516804255.9,286047000.3,N
1516804275.7,286047000.5,N
1516804295.6,286047002.3,N
1516804315.4,286047004.0,Y
1516804335.3,286047002.6,P
1516804355.1,286046999.7,N
1516804356.0,286046999.7,N
1516804375.8,286047001.7,N
1516804395.7,286046998.5,N
1516804415.5,286046998.1,N
1516804435.4,286046998.2,N
1516804455.2,286047001.0,N
1516804475.0,286047001.0,N
1516804475.9,286047001.0,N
1516804495.8,286046998.4,N
1516804515.6,286046999.8,N
1516804535.4,286046999.8,N
1516804555.3,286046998.6,N
1516804575.1,286046998.8,N
1516804595.9,286046998.6,N
1516804615.7,286046995.5,Y
1516804635.5,286046994.9,P
1516804655.4,286046996.3,N
1516804675.2,286046995.8,N
1516804695.1,286046995.3,N
1516804696.0,286046995.3,N
1516804715.8,286046996.5,N
1516804735.6,286046995.1,Y
1516804755.5,286047002.3,P
1516804775.3,286047002.4,N
1516804795.1,286046999.7,N
1516804815.9,286047000.1,N
1516804835.7,286046998.2,N
1516804855.6,286046998.7,N
1516804875.4,286046999.4,N
1516804895.2,286046998.1,N
1516804915.1,286047000.6,N
1516804916.0,286047000.6,N
1516804935.8,286046998.9,N
1516804955.7,286046998.5,N
1516804975.5,286046998.9,N
1516804995.3,286047001.2,N
1516805015.2,286046999.1,N
1516805035.0,286047001.2,N
1516805035.9,286047001.2,N
1516805055.8,286047000.5,N
1516805075.6,286046999.9,N
1516805095.4,286046998.9,N
1516805115.3,286046998.8,N
1516805135.1,286047000.6,N
1516805155.9,286046998.8,N
1516805175.7,286046998.4,N
1516805195.5,286046996.5,N
1516805215.4,286046999.1,N
1516805235.2,286046998.8,N
1516805255.0,286046999.7,N
1516805255.9,286046999.7,N
1516805275.8,286047002.8,N
1516805295.6,286046999.9,N
1516805315.5,286046999.7,N
1516805335.3,286047002.0,N
1516805355.1,286047000.2,N
1516805375.9,286047002.2,N
1516805395.7,286046999.8,N
1516805415.5,286047002.2,N
1516805435.4,286046999.7,N
1516805455.2,286046999.7,N
1516805475.1,286047000.2,N
1516805476.0,286047000.2,N
1516805495.8,286047001.6,N
1516805515.6,286047001.7,N
1516805535.5,286047001.6,N
1516805555.3,286047002.5,N
1516805575.1,286047001.9,N
1516805595.9,286047001.9,N
1516805615.7,286047002.7,N
1516805635.6,286047002.1,N
1516805655.4,286046999.9,N
1516805675.2,286047001.8,N
1516805695.1,286046999.8,N
1516805696.0,286046999.8,N
1516805715.8,286047002.1,N
1516805735.7,286047001.3,N
1516805755.5,286047004.3,Y
1516805775.3,286047001.9,P
1516805795.2,286047003.9,P
1516805815.0,286047002.1,N
1516805815.9,286047002.1,N
1516805835.8,286047002.5,N
1516805855.6,286047001.8,N
1516805875.4,286047004.2,Y
1516805895.3,286047000.6,P
1516805915.1,286047000.9,N
1516805935.8,286047000.6,N
1516805955.7,286047002.6,Y
1516805975.5,286047000.4,P
1516805995.4,286047000.8,N
